STARLINK-32221, 60342

Orbit data source: Space-Track

STARLINK-32221, 60342 is a payload satellite owned by SpaceX/Seattle (US) in LEO that was launched on Fri, 02 Aug 2024 UTC via an FALCON 9 launch vehicle from the Air Force Eastern Test Range (AFETR). Payload-class satellites include a variety of spacecraft equipped with specific instruments for various scientific and technological missions. These include communications satellites like Starlink; space stations such as the ISS; scientific satellites like the Hubble; Earth observation satellites from companies like Planet Labs, Umbra, and HawkEye 360; GPS; miniature CubeSats for education and research; and military/defense satellites.

Loading next visibility...
Identifier
60342, 2024-136P
Orbit
LEO
Last TLE update
1 day ago
Origin
Manufacturer
SpaceX/Seattle
Mission
Operational Commercial Communications
Bus & Motor
STARLINK V2M, Unknown motor
Mass
730 kg wet, ~700 kg dry
Launch date (UTC)
2024-08-02 (9 months ago)
Launch vehicle
FALCON 9
Launch site
Air Force Eastern Test Range (AFETR)
Object type
Payload
Rocket body
Debris
Shape & HBR
Box + 2 Pan, 29 m
Radar Cross Section
33.884 m², Large (>1 m²)

Expand to show TLE details & history

TLE from 1 day ago
0 STARLINK-32221
1 60342U 24136P   25128.07128848  .00000507  00000-0  29255-4 0  9996
2 60342  53.1611  55.1880 0001508  77.9723 282.1447 15.30195564 42878
Epoch: 2025-05-08T01:42Z
Definitive object data (Epoch: 2025-05-08T01:42:39.324Z)
Latitude
-0.00001°
Longitude
163.37709°
Altitude
475.911 km
Speed
7.629 km/s
True Right ascension
03h 40m 45s
True Declination
0° 00' 00"
Sunlit
Object was in daylight at TLE epoch
Visualization TLE readout
Latitude
38.55121°
Longitude
-165.70819°
Altitude
477.619 km
Speed
7.632 km/s
Apparent Right ascension
04h 06m 07s
Apparent Declination
1° 07' 03"
Sunlit
Object is in daylight
Visualization observer readout
Local Sidereal Time
14:17:40
Azimuth
322.136° NNW
Elevation
-42.073°
Doppler factor
1
Orbital elements
Apogee altitude
476.518 km
Perigee altitude
474.451 km
Semi-major axis
6,853.622 km
Eccentricity
0.0001508
Inclination
53.1611°
RAAN
55.188°
Arg. of periapsis
77.9723°
True anomaly
282.12781°
Mean anomaly
282.1447°
Eccentric anomaly
282.13625°
Mean motion
3.82528 °/min
BSTAR
0.000029255
Orbital period
94.11 mins
Loading maneuver chart data...
Loading SW <> Apogee altitude chart data...
Loading historical data...
Loading historical data...
Loading historical data...
Loading historical data...
Loading historical data...
Loading historical data...
Loading historical data...

STARLINK-32221 Visibility forecast

Observer location: undefined°, undefined°

Span
Click to sort rows by Start time (UTC) header in descending order
Start Az.
Max El. time (UTC)
Max El. Az.
Max El.
End time (UTC)
End Az.
5 mins2025-05-09 21:48:53.431Z251.223° W2025-05-09 21:50:53.431Z328.295° NNW40.399°2025-05-09 21:53:53.431Z41.643° NE
4 mins2025-05-10 02:45:53.431Z347.656° N2025-05-10 02:47:53.431Z30.395° NE19.415°2025-05-10 02:49:53.431Z68.435° E
5 mins2025-05-10 04:23:53.431Z301.145° NW2025-05-10 04:25:53.431Z219.419° SW43.243°2025-05-10 04:28:53.431Z140.105° SSE
|